TimeGMT,TemperatureF,Dew PointF,Humidity,Sea Level PressureIn,VisibilityMPH,Wind Direction,Wind SpeedMPH,Gust SpeedMPH,PrecipitationIn,Events,Conditions,WindDirDegrees,DateUTC
12:50 AM,46.4,42.8,87,30.04,3.1,NE,3.5,-,N/A,,Overcast,50,2012-11-16 00:50:00
1:50 AM,44.6,42.8,93,30.04,3.1,NNE,2.3,-,N/A,,Overcast,30,2012-11-16 01:50:00
2:50 AM,44,42,90,30.03,3,NE,1.2,,,,Overcast,50,2012-11-16 02:50:00
2:50 AM,44.6,42.8,93,30.01,-9999.0,NE,1.2,-,N/A,,Overcast,50,2012-11-16 02:50:00
3:50 AM,44.6,42.8,93,30.01,2.8,North,2.3,-,N/A,,Overcast,360,2012-11-16 03:50:00
4:50 AM,44.6,42.8,93,30.01,3.1,West,1.2,-,N/A,,Overcast,280,2012-11-16 04:50:00
5:50 AM,47,43,80,29.99,4,ESE,9.2,,,,Overcast,120,2012-11-16 05:50:00
5:50 AM,46.4,42.8,87,29.98,3.7,ESE,9.2,-,N/A,,Overcast,120,2012-11-16 05:50:00
6:50 AM,46.4,42.8,87,29.98,3.7,East,5.8,-,N/A,,Overcast,90,2012-11-16 06:50:00
7:50 AM,46.4,42.8,87,29.95,3.7,ESE,5.8,-,N/A,,Mostly Cloudy,110,2012-11-16 07:50:00
8:50 AM,47,44,87,29.96,3,ESE,8.1,,,,Mostly Cloudy,120,2012-11-16 08:50:00
8:50 AM,46.4,44.6,93,29.95,3.1,ESE,8.1,-,N/A,,Haze,120,2012-11-16 08:50:00
9:50 AM,48.2,44.6,87,29.95,2.5,ESE,9.2,-,N/A,,Haze,110,2012-11-16 09:50:00
10:50 AM,48.2,44.6,87,29.92,2.5,ESE,11.5,-,N/A,,Haze,110,2012-11-16 10:50:00
11:50 AM,48,46,89,29.91,3,ESE,9.2,,,,Mostly Cloudy,120,2012-11-16 11:50:00
11:50 AM,48.2,46.4,93,29.89,-9999.0,ESE,9.2,-,N/A,,Scattered Clouds,120,2012-11-16 11:50:00
12:50 PM,48.2,46.4,93,29.86,4.3,ESE,10.4,-,N/A,,Mostly Cloudy,120,2012-11-16 12:50:00
1:50 PM,48.2,46.4,93,29.83,-9999.0,ESE,10.4,-,N/A,,Mostly Cloudy,110,2012-11-16 13:50:00
2:50 PM,48,47,96,29.83,3,ESE,8.1,,,,Scattered Clouds,110,2012-11-16 14:50:00
2:50 PM,48.2,46.4,93,29.83,-9999.0,ESE,8.1,-,N/A,,Mostly Cloudy,110,2012-11-16 14:50:00
3:50 PM,48.2,48.2,100,29.80,-9999.0,ESE,8.1,-,N/A,,Mostly Cloudy,110,2012-11-16 15:50:00
4:50 PM,48.2,48.2,100,29.77,-9999.0,East,6.9,-,N/A,,Mostly Cloudy,90,2012-11-16 16:50:00
5:50 PM,49,48,93,29.78,2,East,8.1,,,,Mostly Cloudy,100,2012-11-16 17:50:00
5:50 PM,48.2,48.2,100,29.77,1.9,East,8.1,-,N/A,,Mostly Cloudy,100,2012-11-16 17:50:00
6:50 PM,50.0,48.2,94,29.77,1.0,East,4.6,-,N/A,,Mostly Cloudy,90,2012-11-16 18:50:00
7:50 PM,48.2,48.2,100,29.74,2.5,NE,5.8,-,N/A,,Overcast,40,2012-11-16 19:50:00
8:50 PM,49,47,92,29.74,3,NNE,4.6,,,,Mostly Cloudy,20,2012-11-16 20:50:00
8:50 PM,48.2,48.2,100,29.74,-9999.0,NNE,4.6,-,N/A,,Mostly Cloudy,20,2012-11-16 20:50:00
9:50 PM,48.2,48.2,100,29.71,4.3,NE,6.9,-,N/A,,Overcast,40,2012-11-16 21:50:00
10:50 PM,48.2,46.4,93,29.71,1.4,North,9.2,-,N/A,,Overcast,360,2012-11-16 22:50:00
11:50 PM,48,47,94,29.71,3,North,10.4,,,,Partly Cloudy,10,2012-11-16 23:50:00
11:50 PM,48.2,46.4,93,29.71,3.1,North,10.4,-,N/A,,Mostly Cloudy,10,2012-11-16 23:50:00